Regional Weather Roundup
Issued by NWS

Home | Current Version | Previous Version | Graphics & Text | Print | Product List | Glossary On
Versions: 1 2 3 4 5 6 7 8 9 10 11 12 13 14 15 16 17 18 19 20 21 22 23 24 25 26 27 28 29 30 31 32 33 34 35 36 37 38 39 40 41 42 43 44 45 46 47 48 49 50
075
ASUS44 KJAN 171010
RWRMS

MISSISSIPPI HOURLY WEATHER ROUNDUP
NATIONAL WEATHER SERVICE JACKSON MS
500 AM CDT WED SEP 17 2014

NOTE: "FAIR: INDICATES FEW OR NO CLOUDS BELOW 12,000 FEET WITH NO
SIGNIFICANT WEATHER AND/OR OBSTRUCTIONS TO VISIBILITY.

MSZ001>002-007>008-010>013-018>021-025>028-034>036-171100-
NORTHWEST MISSISSIPPI

CITY           SKY/WX    TMP DP  RH WIND       PRES   REMARKS
CLARKSDALE     FAIR      64  64 100 CALM      30.02S
CLEVELAND      FAIR      67  67 100 NE6       29.98F
GREENWOOD      CLEAR     69  66  90 NE6       29.99R
GREENVILLE     CLEAR     69  66  90 NE3       29.98S
GRENADA        FAIR      64  63  94 CALM      30.01R
OLIVE BRANCH   CLEAR     61  61 100 NE5       30.03S
OXFORD         FAIR      63  59  88 E3        30.04S
TUNICA         PTSUNNY   61  61 100 CALM      30.03R FOG
$$

MSZ003>006-009-014>017-022>024-029>033-037>039-171100-
NORTHEAST MISSISSIPPI

CITY           SKY/WX    TMP DP  RH WIND       PRES   REMARKS
COLUMBUS AFB   CLOUDY    66  66  99 N2        29.99S
CORINTH          N/A     59  57  94 CALM      30.02S FOG
GOLDN TRIANGLE PTCLDY    66  63  88 N5        29.99S
STARKVILLE     FAIR      64  64 100 CALM      29.99S FOG
TUPELO         CLEAR     63  61  93 NE5       30.01S
$$

MSZ040-058-171100-
CENTRAL MISSISSIPPI

CITY           SKY/WX    TMP DP  RH WIND       PRES   REMARKS
JACKSON INTL   PTCLDY    69  68  96 CALM      29.96S FOG
JACKSON HAWKNS PTCLDY    71  68  90 CALM      29.97S
MERIDIAN KEY   CLEAR     70  68  93 N8        29.96S
MERIDIAN NAS   CLEAR     70  68  93 N3        29.97S
RAYMOND        HAZE      68  64  88 CALM      29.97R VSB 3/4
VICKSBURG      MOCLDY    68  67  96 CALM      29.95F
$$

MSZ059>079-171100-
SOUTH MISSISSIPPI

CITY           SKY/WX    TMP DP  RH WIND       PRES   REMARKS
BROOKHAVEN     FAIR      70  70 100 CALM      29.99S FOG
HATTIESBURG    MOCLDY    71  69  93 CALM      29.96S
MCCOMB         CLOUDY    72  70  93 CALM      29.97R
NATCHEZ        MOCLDY    70  68  94 CALM      29.98S
PINE BELT      CLOUDY    68  64  88 CALM      29.97S VSB 1/2
$$

MSZ080>082-171100-
COASTAL MISSISSIPPI

CITY           SKY/WX    TMP DP  RH WIND       PRES   REMARKS
BILOXI         CLOUDY    73  71  92 CALM      29.95S
PASCAGOULA     MOCLDY    71  70  96 CALM      29.95S FOG
GULFPORT       CLOUDY    72  71  97 CALM      29.95R
$$



USA.gov is the U.S. government's official web portal to all federal, state and local government web resources and services.